TimeCDT,TemperatureF,Dew PointF,Humidity,Sea Level PressureIn,VisibilityMPH,Wind Direction,Wind SpeedMPH,Gust SpeedMPH,PrecipitationIn,Events,Conditions,WindDirDegrees,DateUTC
12:58 AM,30.7,30.6,99,29.99,10.0,ENE,6.9,-,N/A,,Overcast,60,2013-03-22 05:58:00
1:58 AM,30.7,30.6,99,29.99,10.0,ENE,5.8,-,N/A,,Overcast,60,2013-03-22 06:58:00
2:28 AM,32.0,32.0,100,29.96,10.0,ENE,8.1,-,N/A,,Overcast,60,2013-03-22 07:28:00
2:58 AM,30.4,30.4,100,29.98,10.0,ENE,6.9,-,N/A,,Overcast,60,2013-03-22 07:58:00
3:13 AM,32.0,32.0,100,29.95,8.0,ENE,10.4,-,N/A,,Overcast,60,2013-03-22 08:13:00
3:28 AM,32.0,32.0,100,29.95,8.0,ENE,8.1,-,N/A,,Overcast,60,2013-03-22 08:28:00
3:58 AM,30.4,30.4,100,29.99,10.0,ENE,8.1,-,N/A,,Overcast,60,2013-03-22 08:58:00
4:58 AM,30.7,30.6,99,29.99,10.0,ENE,6.9,-,N/A,,Overcast,60,2013-03-22 09:58:00
4:59 AM,32.0,32.0,100,29.95,10.0,ENE,8.1,-,N/A,Snow,Light Snow,60,2013-03-22 09:59:00
5:24 AM,32.0,30.2,93,29.95,7.0,ENE,8.1,-,N/A,Snow,Light Snow,60,2013-03-22 10:24:00
5:58 AM,30.0,29.8,99,29.99,7.0,ENE,6.9,-,0.00,Snow,Light Snow,70,2013-03-22 10:58:00
6:58 AM,29.7,29.7,100,30.01,10.0,East,4.6,-,0.00,Snow,Light Snow,80,2013-03-22 11:58:00
7:58 AM,29.5,29.3,99,30.01,9.0,East,6.9,-,0.00,,Overcast,80,2013-03-22 12:58:00
8:58 AM,30.2,30.0,99,30.02,10.0,East,5.8,-,N/A,,Overcast,90,2013-03-22 13:58:00
9:36 AM,32.0,32.0,100,29.97,8.0,East,5.8,-,N/A,Snow,Light Snow,80,2013-03-22 14:36:00
9:58 AM,31.1,30.9,99,30.01,10.0,ENE,6.9,-,0.00,,Overcast,70,2013-03-22 14:58:00
10:25 AM,32.0,32.0,100,29.97,10.0,East,8.1,-,N/A,,Overcast,80,2013-03-22 15:25:00
10:58 AM,32.0,31.8,99,29.99,8.0,East,8.1,-,N/A,,Overcast,100,2013-03-22 15:58:00
11:58 AM,32.9,32.7,99,30.01,9.0,ENE,6.9,-,N/A,,Overcast,70,2013-03-22 16:58:00
12:58 PM,33.6,33.3,99,30.01,8.0,East,4.6,-,N/A,,Overcast,100,2013-03-22 17:58:00
1:18 PM,33.8,32.0,93,29.97,4.0,ENE,6.9,-,N/A,,Overcast,60,2013-03-22 18:18:00
1:38 PM,33.8,32.0,93,29.97,4.0,East,5.8,-,N/A,,Overcast,90,2013-03-22 18:38:00
1:46 PM,33.8,32.0,93,30.00,4.0,East,5.8,-,N/A,,Overcast,90,2013-03-22 18:46:00
1:58 PM,34.0,34.0,100,30.00,3.0,East,4.6,-,N/A,,Overcast,90,2013-03-22 18:58:00
2:13 PM,33.8,33.8,100,29.96,3.0,East,6.9,-,N/A,,Overcast,100,2013-03-22 19:13:00
2:27 PM,33.8,33.8,100,29.96,2.5,East,5.8,-,N/A,,Overcast,90,2013-03-22 19:27:00
2:44 PM,33.8,33.8,100,29.95,2.5,ENE,6.9,-,N/A,,Light Drizzle,70,2013-03-22 19:44:00
2:58 PM,34.9,34.9,100,29.97,2.5,East,5.8,-,N/A,,Light Drizzle,80,2013-03-22 19:58:00
3:22 PM,34.9,34.9,100,29.97,2.5,East,5.8,-,N/A,,Light Drizzle,80,2013-03-22 20:22:00
3:37 PM,35.6,35.6,100,29.94,1.5,East,4.6,-,N/A,,Light Drizzle,100,2013-03-22 20:37:00
3:58 PM,34.5,34.5,100,29.98,1.5,East,4.6,-,N/A,,Light Drizzle,100,2013-03-22 20:58:00
4:10 PM,35.6,35.6,100,29.95,2.0,East,4.6,-,N/A,,Overcast,80,2013-03-22 21:10:00
4:25 PM,35.6,35.6,100,29.95,4.0,East,4.6,-,N/A,,Overcast,90,2013-03-22 21:25:00
4:58 PM,35.1,35.1,100,29.98,3.0,East,5.8,-,N/A,,Overcast,80,2013-03-22 21:58:00
5:03 PM,35.6,35.6,100,29.95,3.0,ENE,6.9,-,N/A,,Overcast,70,2013-03-22 22:03:00
5:28 PM,35.6,35.6,100,29.95,10.0,East,4.6,-,N/A,,Overcast,90,2013-03-22 22:28:00
5:33 PM,35.6,35.6,100,29.95,10.0,East,5.8,-,N/A,,Overcast,90,2013-03-22 22:33:00
5:58 PM,35.1,35.1,100,29.98,7.0,ENE,6.9,-,N/A,,Overcast,60,2013-03-22 22:58:00
6:17 PM,35.6,35.6,100,29.95,3.0,ENE,8.1,-,N/A,,Overcast,60,2013-03-22 23:17:00
6:58 PM,34.7,34.7,100,29.98,4.0,ENE,6.9,-,N/A,,Overcast,60,2013-03-22 23:58:00
7:23 PM,33.8,33.8,100,29.96,0.8,NE,6.9,-,N/A,,Overcast,50,2013-03-23 00:23:00
7:58 PM,34.2,34.2,100,30.01,0.8,ENE,6.9,-,N/A,,Overcast,60,2013-03-23 00:58:00
8:23 PM,33.8,33.8,100,29.97,4.0,ENE,5.8,-,N/A,,Overcast,70,2013-03-23 01:23:00
8:58 PM,34.3,34.3,100,30.01,4.0,East,4.6,-,N/A,,Overcast,80,2013-03-23 01:58:00
9:03 PM,33.8,33.8,100,29.98,6.0,East,3.5,-,N/A,,Overcast,90,2013-03-23 02:03:00
9:08 PM,33.8,33.8,100,29.98,6.0,ENE,4.6,-,N/A,,Overcast,70,2013-03-23 02:08:00
9:13 PM,33.8,33.8,100,29.98,6.0,ENE,5.8,-,N/A,,Overcast,70,2013-03-23 02:13:00
9:58 PM,34.3,34.3,100,30.01,5.0,East,3.5,-,N/A,,Overcast,80,2013-03-23 02:58:00
10:13 PM,33.8,33.8,100,29.98,5.0,NE,5.8,-,N/A,,Overcast,40,2013-03-23 03:13:00
10:58 PM,34.3,34.3,100,30.02,5.0,NNE,6.9,-,N/A,,Overcast,30,2013-03-23 03:58:00
11:13 PM,33.8,33.8,100,29.99,5.0,NNE,6.9,-,N/A,,Overcast,30,2013-03-23 04:13:00
11:23 PM,33.8,33.8,100,29.99,5.0,NNE,5.8,-,N/A,,Overcast,20,2013-03-23 04:23:00
11:33 PM,33.8,33.8,100,30.00,5.0,NNE,5.8,-,N/A,,Overcast,20,2013-03-23 04:33:00
11:38 PM,33.8,33.8,100,30.00,4.0,North,5.8,-,N/A,,Overcast,10,2013-03-23 04:38:00
11:58 PM,34.3,34.3,100,30.03,4.0,NNE,5.8,-,N/A,,Overcast,20,2013-03-23 04:58:00